Location: Newark
(39.2833°N, 16.3333°E)
Time: 06:11:16
(UTC+00:00)

Envisat - Pass Details

Date: 27 October 2019
Orbit: 764 x 766 km, 98.1° (Epoch: 11 November)

Event Time Altitude Azimuth Distance (km) Brightness Sun altitude
Rises 18:07:45 0° 205° (SSW) 3,218 6.5 -25.3°
Reaches altitude 10° 18:10:41 10° 222° (SW) 2,297 5.9 -25.9°
Maximum altitude 18:14:15 19° 267° (W) 1,753 5.6 -26.5°
Drops below altitude 10° 18:17:50 10° 313° (NW) 2,307 6.1 -27.2°
Sets 18:20:48 0° 330° (NNW) 3,238 6.7 -27.8°
